Regional Weather Roundup
Issued by NWS

Home | Current Version | Previous Version | Text Only | Print | Product List | Glossary On
Versions: 1 2 3 4 5 6 7 8 9 10 11 12 13 14 15 16 17 18 19 20 21 22 23 24 25 26 27 28 29 30 31 32 33 34 35 36 37 38 39 40 41 42 43 44 45 46 47 48 49 50
000
ASUS43 KLOT 281708
RWRIL

ILLINOIS REGIONAL WEATHER ROUNDUP
NATIONAL WEATHER SERVICE CHICAGO/ROMEOVILLE IL
1200 PM CDT THU JUL 28 2016

NOTE: "FAIR" INDICATES FEW OR NO CLOUDS BELOW 12,000 FEET WITH NO
SIGNIFICANT WEATHER AND/OR OBSTRUCTIONS TO VISIBILITY.

* THESE STATIONS ARE NOT UNDER NWS QUALITY CONTROL. THEY ALSO MAY NOT
  REPORT WEATHER SUCH AS PRECIPITATION OR FOG.

ILZ001-002-007-009-015-016-024-281800-
NORTHWEST ILLINOIS

CITY           SKY/WX    TMP DP  RH WIND       PRES   REMARKS
MOLINE         PTSUNNY   85  69  58 W7        29.89F HX  89
STERLING*      MOSUNNY   83  73  72 VRB3      29.89F HX  89
SAVANNA*       SUNNY     83  69  63 W6        29.89S HX  86
$$

ILZ003-004-008-010-011-017-018-281800-
NORTH CENTRAL ILLINOIS

CITY           SKY/WX    TMP DP  RH WIND       PRES   REMARKS
ROCKFORD       LGT RAIN  84  70  62 E6        29.90F HX  88
FREEPORT*      PTSUNNY   82  71  70 SE3       29.91F HX  85
ROCHELLE*      SUNNY     83  73  72 S7        29.89F HX  89
DE KALB*       MOSUNNY   84  71  66 S8        29.90F HX  89
$$

ILZ005-006-012>014-019>023-281800-
NORTHEAST ILLINOIS

CITY           SKY/WX    TMP DP  RH WIND       PRES   REMARKS
CHICAGO-OHARE  CLOUDY    82  69  64 NE8       29.89S HX  85
CHICAGO-MIDWAY PTSUNNY   76  66  71 E10       29.88F
AURORA         SUNNY     85  72  65 S7        29.89F HX  91
LANSING*       PTSUNNY   84  66  55 SE6       29.90F HX  86
JOLIET*        CLOUDY    85  72  65 SW5       29.89F HX  90
WAUKEGAN       PTSUNNY   79  67  66 VRB5      29.91S HX  81
DUPAGE AIRPORT MOSUNNY   85  69  58 SE7       29.89F HX  89
KANKAKEE*      MOSUNNY   84  70  63 S8        29.91S HX  88
WHEELING       MOSUNNY   81  70  69 E7        29.91F HX  84
MORRIS*        SUNNY     83  72  69 S3        29.88F HX  88
ROMEOVILLE*    MOSUNNY   83  66  55 S6        29.89F HX  85
NORTHERLY ISL    N/A     76  72  87 NE5         N/A
$$

LMZ740>746-281800-
SOUTHERN LAKE MICHIGAN

STATION/POSITION SKY/WX   TEMP    WIND        PRES    VSBY  WAVE
                          AIR SEA DIR/SP/G                  HT/PER
                          (F)     (DEG/KT/KT) (MB)    (MI)  (FT/S)
SOUTHERN BUOY              75 76  110/  6/  6 1012.2R         1/ 4
WILMETTE HARBOR            75 72   90/  4/  4   N/A           1/ 2
HARRISON CRIB              78     100/  4/  4   N/A
BURNHAM HARBOR             76      30/  3/  6   N/A
CALUMET HARBOR             79      80/  6/  8 1012.1F
BURNS HARBOR               78      30/  5/  6 1013.2S
MICHIGAN CITY              77     350/  6/  6   N/A
MICHIGAN CITY 6N           79 79  330/  4/  4   N/A           1
ST. JOSEPH                 77 79  310/  4/  4 1012.2F         0
$$

ILZ025>027-034>036-040-047-049-050-058-095>099-281800-
WEST-CENTRAL ILLINOIS

CITY           SKY/WX    TMP DP  RH WIND       PRES   REMARKS
QUINCY         MOSUNNY   83  70  64 N10       29.92S HX  87
GALESBURG*     PTSUNNY   82  70  66 NW7       29.92S HX  86
MACOMB*        PTSUNNY   82  71  69 NW7       29.95R HX  86
JACKSONVILLE*  PTSUNNY   82  73  74 NW5       29.90F HX  88
PITTSFIELD*    SUNNY     83  73  69 N7        29.93S HX  89
$$

ILZ028>032-037-038-041>044-048-051>054-059>061-281800-
CENTRAL ILLINOIS

CITY           SKY/WX    TMP DP  RH WIND       PRES   REMARKS
PONTIAC        SUNNY     83  74  75 S6        29.90F HX  89
BLOOMINGTON    MOSUNNY   82  73  74 SE9       29.91F HX  87
DECATUR        SUNNY     82  71  69 S5        29.89F HX  86
PEORIA         PTSUNNY   83  72  69 CALM      29.89S HX  88
LACON*         MOSUNNY   84  73  68 SE7       29.88F HX  91
LINCOLN*       MOSUNNY   85  76  74 N3        29.88F HX  93
SPRINGFIELD    LGT RAIN  84  75  74 NW6       29.88F HX  92
TAYLORVILLE    CLOUDY    73  71  94 MISG      29.91R THUNDER
$$

ILZ033-039-045-046-055>057-062-063-281800-
EAST-CENTRAL ILLINOIS

CITY           SKY/WX    TMP DP  RH WIND       PRES   REMARKS
CHAMPAIGN      SUNNY     79  70  74 CALM      29.90F HX  82
MATTOON        CLOUDY    75  68  78 CALM      29.89S
PARIS*         CLOUDY    77  75  92 CALM      29.91R
$$

ILZ079-100>102-281800-
SOUTHWEST ILLINOIS

CITY           SKY/WX    TMP DP  RH WIND       PRES   REMARKS
ALTON          MOSUNNY   84  75  74 N6        29.90F HX  92
CAHOKIA*       MOSUNNY   90  73  57 N7        29.88F HX  98
SPARTA*        MOSUNNY   85  76  72 CALM      29.91F HX  95
$$

ILZ064>066-069>071-074>076-080>082-084>086-088>090-092>094-281800-
SOUTH-CENTRAL ILLINOIS

CITY           SKY/WX    TMP DP  RH WIND       PRES   REMARKS
CARBONDALE     PTSUNNY   85  73  67 W5        29.90F HX  91
CAIRO*         MOSUNNY   82  76  83 SW3       29.92S HX  88
EFFINGHAM*     PTSUNNY   76  74  92 E6        29.91F THUNDER
MARION         PTSUNNY   82  75  78 SW7       29.92S HX  89
MT. VERNON     CLOUDY    84  73  70 MISG      29.90F HX  91
CENTRALIA*     PTSUNNY   84  77  79 CALM      29.89F HX  93
SALEM*         PTSUNNY   84  75  73 CALM      29.90F HX  92
METROPOLIS*    CLOUDY    82  75  78 S3        29.93S HX  88
$$

ILZ067-068-072-073-078-083-087-091-281800-
SOUTHEAST ILLINOIS

CITY           SKY/WX    TMP DP  RH WIND       PRES   REMARKS
LAWRENCEVILLE  CLOUDY    80  74  81 VRB6      29.90F HX  85
FLORA*         CLOUDY    83  75  78 CALM      29.90F HX  90
FAIRFIELD*     CLOUDY    81  74  81 CALM      29.89F HX  86
HARRISBURG*    CLOUDY    80  75  85 SW5       29.91F HX  85
ROBINSON*      CLOUDY    81  74  79 S7        29.89F HX  85
CARMI*         CLOUDY    79  74  85 SW5       29.90F HX  82
$$

ABBREVIATIONS USED IN REMARKS
   TC - TEMPERATURE IN CELSIUS
  WCI - WIND CHILL INDEX
   HX - HEAT INDEX
  VSB - VISIBILITY
$$




USA.gov is the U.S. government's official web portal to all federal, state and local government web resources and services.